Weather History for Fargo, ND

Change the Weather History Date:

Tuesday, February 5, 2013

  Actual Average Record
Temperature  
Mean Temperature 18 °F 11 °F  
Max Temperature 28 °F 21 °F 51 °F (1963)
Min Temperature 7 °F 2 °F -35 °F (1889)
Degree Days  
Heating Degree Days 47 54  
Month to date heating degree days 307 271  
Since 1 July heating degree days 5440 5539  
Cooling Degree Days 0 0  
Month to date cooling degree days 0 0  
Year to date cooling degree days 0 0  
Moisture  
Dew Point 6 °F    
Average Humidity 75    
Maximum Humidity 84    
Minimum Humidity 66    
Precipitation  
Precipitation T in 0.02 in 0.88 in (1946)
Month to date precipitation 0.13 0.09  
Year to date precipitation 1.10 0.79  
Snow  
Snow 0.10 in 0.20 in 7.50 in (1946)
Month to date snowfall 2.5 1.2  
Since 1 July snowfall 25.2 32.2  
Snow Depth 8.00 in    
Sea Level Pressure  
Sea Level Pressure 29.93 in    
Wind  
Wind Speed 11 mph (NNW)    
Max Wind Speed 24 mph    
Max Gust Speed 28 mph    
Visibility 9 miles    
Events Snow    
T = Trace of Precipitation, MM = Missing Value Source: NWS Daily Summary

Daily Weather History Graph

Daily Weather History Graph

Search for Another Location

Airport:

Trip Planner

Search our weather history database for the weather conditions in past years. The results will help you decide how hot, cold, wet, or windy it might be!

Date:

Astronomy

Feb. 05, 2013 Rise Set
Actual Time 7:46 AM CST 5:36 PM CST
Civil Twilight 7:14 AM CST 6:09 PM CST
Nautical Twilight 6:38 AM CST 6:45 PM CST
Astronomical Twilight 6:02 AM CST 7:20 PM CST
Moon 3:36 AM CST (2/5) 12:48 PM CST (2/5)
Length of Visible Light 10h 54m
Length of Day
9h 50m
Waning Crescent, 26% of the Moon is Illuminated
Feb 5
Waning Crescent
Feb 10
New
Feb 17
First Quarter
Feb 25
Full
Mar 4
Last Quarter

Hourly Weather History & Observations

Time (CST) Temp. Windchill Dew Point Humidity Pressure Visibility Wind Dir Wind Speed Gust Speed Precip Events Conditions
12:53 AM 21.0 °F 11.4 °F 17.1 °F 85% 29.65 in 10.0 mi WSW 8.1 mph - N/A   Mostly Cloudy
1:37 AM 26.6 °F 16.8 °F 21.2 °F 80% 29.60 in 10.0 mi West 10.4 mph - N/A   Overcast
1:48 AM 26.6 °F 16.8 °F 21.2 °F 80% 29.60 in 3.0 mi WNW 10.4 mph - 0.00 in Snow Light Snow
1:53 AM 26.1 °F 16.2 °F 21.0 °F 81% 29.66 in 4.0 mi WNW 10.4 mph - 0.00 in Snow Light Snow
2:53 AM 27.0 °F 17.3 °F 21.9 °F 81% 29.68 in 10.0 mi WNW 10.4 mph - 0.00 in   Overcast
3:13 AM 26.6 °F 15.7 °F 21.2 °F 80% 29.65 in 10.0 mi NNW 12.7 mph - N/A   Overcast
3:53 AM 21.0 °F 5.0 °F 16.0 °F 81% 29.73 in 6.0 mi North 21.9 mph - 0.00 in   Haze
4:38 AM 15.8 °F -1.1 °F 10.4 °F 79% 29.72 in 5.0 mi North 19.6 mph - 0.00 in Snow Light Snow
4:53 AM 15.1 °F -2.5 °F 9.0 °F 77% 29.79 in 6.0 mi North 20.7 mph - 0.00 in   Haze
5:53 AM 14.0 °F -3.9 °F 8.1 °F 77% 29.84 in 8.0 mi NNW 20.7 mph - N/A   Overcast
6:23 AM 12.2 °F -6.7 °F 6.8 °F 79% 29.80 in 8.0 mi North 21.9 mph - N/A   Mostly Cloudy
6:53 AM 12.0 °F -6.0 °F 6.1 °F 77% 29.87 in 9.0 mi NNW 19.6 mph - N/A   Overcast
7:08 AM 10.4 °F -7.7 °F 5.0 °F 79% 29.83 in 10.0 mi NNW 18.4 mph - N/A   Overcast
7:23 AM 10.4 °F -7.2 °F 3.2 °F 73% 29.84 in 10.0 mi NNW 17.3 mph - N/A   Scattered Clouds
7:39 AM 8.6 °F -10.5 °F 3.2 °F 79% 29.86 in 9.0 mi North 19.6 mph - N/A   Mostly Cloudy
7:51 AM 8.6 °F -10.0 °F 1.4 °F 73% 29.86 in 10.0 mi North 18.4 mph - N/A   Scattered Clouds
7:53 AM 8.1 °F -10.2 °F 1.9 °F 76% 29.93 in 10.0 mi North 17.3 mph - N/A   Scattered Clouds
8:26 AM 6.8 °F -11.8 °F 1.4 °F 79% 29.89 in 10.0 mi North 17.3 mph - N/A   Mostly Cloudy
8:39 AM 6.8 °F -11.8 °F 1.4 °F 79% 29.90 in 10.0 mi North 17.3 mph - N/A   Clear
8:53 AM 7.0 °F -12.1 °F 1.0 °F 77% 29.98 in 10.0 mi NNW 18.4 mph - N/A   Clear
9:53 AM 7.0 °F -11.6 °F 1.0 °F 77% 30.02 in 5.0 mi North 17.3 mph - N/A   Haze
10:00 AM 6.8 °F -11.8 °F 1.4 °F 79% 29.96 in 4.0 mi North 17.3 mph - N/A   Haze
10:07 AM 6.8 °F -12.4 °F 1.4 °F 79% 29.96 in 5.0 mi North 18.4 mph - N/A   Haze
10:53 AM 8.1 °F -9.6 °F 1.0 °F 73% 30.05 in 8.0 mi NNW 16.1 mph - N/A   Clear
11:00 AM 8.6 °F -7.7 °F 1.4 °F 73% 29.99 in 10.0 mi NNW 13.8 mph - N/A   Partly Cloudy
11:53 AM 8.1 °F -8.4 °F 1.0 °F 73% 30.07 in 10.0 mi NNW 13.8 mph - N/A   Clear
12:53 PM 10.0 °F -5.9 °F 1.9 °F 70% 30.09 in 10.0 mi NNW 13.8 mph - N/A   Clear
1:53 PM 10.9 °F -0.8 °F 3.0 °F 70% 30.08 in 10.0 mi NNW 8.1 mph - N/A   Clear
2:53 PM 10.9 °F 0.2 °F 3.0 °F 70% 30.08 in 10.0 mi NNW 6.9 mph - N/A   Overcast
3:53 PM 10.9 °F -0.8 °F 3.0 °F 70% 30.11 in 10.0 mi NW 8.1 mph - N/A   Mostly Cloudy
4:53 PM 10.0 °F 3.6 °F 3.0 °F 73% 30.11 in 10.0 mi NW 3.5 mph - N/A   Overcast
5:53 PM 10.9 °F 1.4 °F 3.0 °F 70% 30.12 in 10.0 mi North 5.8 mph - N/A   Overcast
6:53 PM 10.9 °F - 3.9 °F 73% 30.10 in 10.0 mi Calm Calm - N/A   Overcast
7:53 PM 10.9 °F - 3.9 °F 73% 30.12 in 10.0 mi Calm Calm - N/A   Overcast
8:53 PM 12.0 °F 2.7 °F 3.9 °F 70% 30.11 in 10.0 mi South 5.8 mph - N/A   Overcast
9:53 PM 10.9 °F 2.9 °F 3.9 °F 73% 30.09 in 10.0 mi SSE 4.6 mph - N/A   Overcast
10:53 PM 10.9 °F 2.9 °F 3.9 °F 73% 30.10 in 10.0 mi South 4.6 mph - N/A   Overcast
11:53 PM 10.9 °F 2.9 °F 5.0 °F 77% 30.10 in 10.0 mi SSE 4.6 mph - N/A   Overcast